Erie, PA

6:13 AM EDT on May 20, 2018 (GMT -0400)
Erie International

Weather History for KERI - February, 2012

Change the Weather History Date:

Saturday, February 25, 2012

  Actual Average Record
Temperature  
Mean Temperature 31 °F 30 °F  
Max Temperature 33 °F 37 °F 67 °F (1957)
Min Temperature 29 °F 22 °F -4 °F (1900)
Degree Days  
Heating Degree Days 34 35  
Month to date heating degree days 784 924  
Since 1 July heating degree days 3592 4262  
Cooling Degree Days 0 0  
Month to date cooling degree days 0 0  
Year to date cooling degree days 0 0  
Moisture  
Dew Point 23 °F    
Average Humidity 69    
Maximum Humidity 85    
Minimum Humidity 53    
Precipitation  
Precipitation 0.03 in 0.10 in 1.78 in (1961)
Month to date precipitation 1.39 2.11  
Year to date precipitation 5.90 5.06  
Snow  
Snow 0.50 in 0.60 in - ()
Month to date snowfall 8.4 16.4  
Since 1 July snowfall 44.9 82.2  
Snow Depth T in    
Sea Level Pressure  
Sea Level Pressure 29.88 in    
Wind  
Wind Speed 18 mph (West)    
Max Wind Speed 26 mph    
Max Gust Speed 43 mph    
Visibility 8 miles    
Events Snow    
T = Trace of Precipitation, MM = Missing Value Source: NWS Daily Summary

Daily Weather History Graph

Daily Weather History Graph

Search for Another Location

Airport or City:

Astronomy

Feb. 25, 2012 Rise Set
Actual Time 7:02 AM EST 6:05 PM EST
Civil Twilight 6:34 AM EST 6:33 PM EST
Nautical Twilight 6:02 AM EST 7:06 PM EST
Astronomical Twilight 5:29 AM EST 7:38 PM EST
Moon 8:21 AM EST (2/25) 10:10 PM EST (2/25)
Length of Visible Light 11h 58m
Length of Day
11h 02m
Waxing Crescent, 13% of the Moon is Illuminated
Feb 25
Waxing Crescent
Feb 29
First Quarter
Mar 8
Full
Mar 14
Last Quarter
Mar 22
New

Hourly Weather History & Observations

Time (EST) Temp. Windchill Dew Point Humidity Pressure Visibility Wind Dir Wind Speed Gust Speed Precip Events Conditions
12:51 AM 32.0 °F 20.1 °F 24.8 °F 75% 29.64 in 8.0 mi West 19.6 mph 32.2 mph N/A Snow Light Snow
1:10 AM 33.8 °F 22.5 °F 24.8 °F 70% 29.64 in 10.0 mi West 19.6 mph 42.6 mph N/A   Overcast
1:43 AM 33.8 °F 23.2 °F 24.8 °F 70% 29.64 in 10.0 mi West 17.3 mph 36.8 mph N/A   Overcast
1:51 AM 33.1 °F 20.9 °F 23.0 °F 66% 29.65 in 10.0 mi West 21.9 mph 34.5 mph N/A   Overcast
2:33 AM 33.8 °F 23.2 °F 24.8 °F 70% 29.64 in 10.0 mi West 17.3 mph 32.2 mph N/A   Overcast
2:51 AM 32.0 °F 19.8 °F 23.0 °F 69% 29.66 in 10.0 mi West 20.7 mph 29.9 mph N/A   Overcast
3:43 AM 32.0 °F 20.1 °F 23.0 °F 69% 29.64 in 10.0 mi West 19.6 mph 28.8 mph N/A   Overcast
3:51 AM 32.0 °F 20.8 °F 23.0 °F 69% 29.66 in 10.0 mi West 17.3 mph 29.9 mph N/A   Overcast
4:51 AM 32.0 °F 21.2 °F 23.0 °F 69% 29.68 in 10.0 mi West 16.1 mph 32.2 mph N/A   Overcast
5:51 AM 30.9 °F 19.4 °F 23.0 °F 72% 29.71 in 10.0 mi West 17.3 mph 34.5 mph N/A   Overcast
6:51 AM 30.9 °F 18.1 °F 21.9 °F 69% 29.73 in 10.0 mi West 21.9 mph 35.7 mph N/A   Overcast
7:00 AM 30.2 °F 18.5 °F 21.2 °F 69% 29.71 in 10.0 mi West 17.3 mph 33.4 mph N/A   Overcast
7:51 AM 30.9 °F 18.4 °F 23.0 °F 72% 29.76 in 10.0 mi West 20.7 mph 34.5 mph N/A   Overcast
8:32 AM 30.2 °F 17.4 °F 21.2 °F 69% 29.76 in 10.0 mi West 20.7 mph 36.8 mph N/A   Overcast
8:39 AM 30.2 °F 17.8 °F 21.2 °F 69% 29.77 in 10.0 mi West 19.6 mph 36.8 mph N/A   Overcast
8:51 AM 30.9 °F 19.1 °F 21.9 °F 69% 29.80 in 10.0 mi WNW 18.4 mph 34.5 mph N/A   Overcast
8:59 AM 32.0 °F 19.8 °F 23.0 °F 69% 29.77 in 10.0 mi West 20.7 mph 29.9 mph N/A   Overcast
9:51 AM 30.9 °F 18.4 °F 23.0 °F 72% 29.82 in 10.0 mi West 20.7 mph 28.8 mph N/A   Overcast
10:11 AM 30.2 °F 19.3 °F 23.0 °F 75% 29.80 in 10.0 mi West 15.0 mph 27.6 mph N/A   Overcast
10:51 AM 30.9 °F 17.8 °F 23.0 °F 72% 29.84 in 10.0 mi West 23.0 mph 34.5 mph N/A   Overcast
11:22 AM 30.2 °F 17.4 °F 23.0 °F 75% 29.84 in 8.0 mi WNW 20.7 mph 29.9 mph 0.00 in Snow Light Snow
11:37 AM 30.2 °F 18.1 °F 23.0 °F 75% 29.85 in 6.0 mi West 18.4 mph 29.9 mph 0.00 in Snow Light Snow
11:51 AM 30.9 °F 19.4 °F 23.0 °F 72% 29.88 in 5.0 mi WNW 17.3 mph 29.9 mph 0.00 in Snow Light Snow
12:28 PM 30.2 °F 18.1 °F 24.8 °F 80% 29.87 in 1.8 mi West 18.4 mph 31.1 mph 0.00 in Snow Light Snow
12:39 PM 30.2 °F 18.9 °F 24.8 °F 80% 29.87 in 3.0 mi West 16.1 mph 27.6 mph 0.01 in Snow Light Snow
12:51 PM 30.9 °F 18.7 °F 24.1 °F 76% 29.90 in 10.0 mi West 19.6 mph 35.7 mph 0.01 in   Overcast
1:36 PM 30.2 °F 18.1 °F 24.8 °F 80% 29.90 in 1.8 mi West 18.4 mph 28.8 mph 0.00 in Snow Light Snow
1:41 PM 30.2 °F 18.1 °F 24.8 °F 80% 29.90 in 3.0 mi West 18.4 mph 26.5 mph 0.00 in Snow Light Snow
1:51 PM 30.9 °F 17.8 °F 23.0 °F 72% 29.93 in 2.0 mi West 23.0 mph 35.7 mph 0.00 in Snow Light Snow
1:58 PM 30.2 °F 17.4 °F 24.8 °F 80% 29.91 in 1.0 mi West 20.7 mph 35.7 mph 0.00 in Snow Light Snow
2:10 PM 30.2 °F 17.8 °F 24.8 °F 80% 29.92 in 1.0 mi WNW 19.6 mph 28.8 mph 0.00 in Snow Light Snow
2:16 PM 30.2 °F 17.8 °F 24.8 °F 80% 29.92 in 2.0 mi West 19.6 mph 28.8 mph 0.00 in Snow Light Snow
2:19 PM 30.2 °F 18.9 °F 24.8 °F 80% 29.93 in 1.8 mi West 16.1 mph 27.6 mph 0.00 in Snow Light Snow
2:33 PM 30.2 °F 18.9 °F 24.8 °F 80% 29.93 in 3.0 mi West 16.1 mph 27.6 mph 0.00 in Snow Light Snow
2:38 PM 30.2 °F 18.5 °F 24.8 °F 80% 29.94 in 9.0 mi West 17.3 mph 27.6 mph 0.00 in Snow Light Snow
2:42 PM 30.2 °F 18.1 °F 24.8 °F 80% 29.94 in 1.8 mi WNW 18.4 mph 27.6 mph 0.00 in Snow Light Snow
2:51 PM 28.9 °F 15.8 °F 25.0 °F 85% 29.98 in 0.8 mi WNW 20.7 mph 27.6 mph 0.00 in Snow Light Snow
3:12 PM 30.2 °F 18.5 °F 24.8 °F 80% 29.97 in 3.0 mi West 17.3 mph 25.3 mph 0.00 in Snow Light Snow
3:37 PM 30.2 °F 19.8 °F 24.8 °F 80% 29.98 in 10.0 mi West 13.8 mph 26.5 mph 0.00 in   Overcast
3:47 PM 30.2 °F 19.3 °F 24.8 °F 80% 29.99 in 10.0 mi West 15.0 mph 25.3 mph 0.00 in   Overcast
3:51 PM 30.9 °F 19.4 °F 23.0 °F 72% 30.01 in 10.0 mi West 17.3 mph 25.3 mph 0.00 in   Overcast
4:32 PM 30.2 °F 18.1 °F 21.2 °F 69% 30.03 in 10.0 mi WNW 18.4 mph 26.5 mph 0.00 in   Overcast
4:51 PM 30.9 °F 18.7 °F 21.0 °F 67% 30.06 in 10.0 mi West 19.6 mph 31.1 mph 0.00 in   Mostly Cloudy
5:51 PM 30.9 °F 19.4 °F 17.1 °F 57% 30.11 in 10.0 mi WNW 17.3 mph 23.0 mph N/A   Scattered Clouds
6:51 PM 30.9 °F 19.4 °F 15.1 °F 52% 30.15 in 10.0 mi WNW 17.3 mph 27.6 mph N/A   Mostly Cloudy
7:51 PM 30.9 °F 20.7 °F 17.1 °F 57% 30.19 in 10.0 mi WNW 13.8 mph 19.6 mph N/A   Partly Cloudy
8:51 PM 30.9 °F 21.7 °F 18.0 °F 59% 30.22 in 10.0 mi WNW 11.5 mph 24.2 mph N/A   Mostly Cloudy
9:51 PM 32.0 °F 22.5 °F 17.1 °F 54% 30.25 in 10.0 mi WNW 12.7 mph - N/A   Overcast
10:51 PM 32.0 °F 23.6 °F 18.0 °F 56% 30.27 in 10.0 mi WNW 10.4 mph 17.3 mph N/A   Overcast
11:51 PM 32.0 °F 23.0 °F 17.1 °F 54% 30.28 in 10.0 mi WNW 11.5 mph - N/A   Overcast